This is the latest recevied weather packets stored in our database for station/object ON7XX-13. If no packets are shown the sender has not sent any weather packets the latest 10 day(s).
| Time | Temp. | Humidity | Pressure | Rain* | Wind** | Luminosity | Snow |
|---|---|---|---|---|---|---|---|
| 1777693096 | 16.11° C | 69% | 1019.5 hPa | - | - | - | - |
| 1777692482 | 16.67° C | 66% | 1019.5 hPa | - | - | - | - |
| 1777691868 | 16.67° C | 66% | 1019.4 hPa | - | - | - | - |
| 1777691254 | 16.67° C | 66% | 1019.5 hPa | - | - | - | - |
| 1777690648 | 16.67° C | 67% | 1019.6 hPa | - | - | - | - |
| 1777690026 | 16.67° C | 69% | 1019.8 hPa | - | - | - | - |
| 1777689412 | 16.67° C | 66% | 1019.9 hPa | - | - | - | - |
| 1777688798 | 16.67° C | 66% | 1020 hPa | - | - | - | - |
| 1777688183 | 16.67° C | 68% | 1020 hPa | - | - | - | - |
| 1777687569 | 16.67° C | 65% | 1020.1 hPa | - | - | - | - |
| 1777686955 | 16.67° C | 64% | 1020.1 hPa | - | - | - | - |
| 1777686341 | 16.67° C | 66% | 1020.3 hPa | - | - | - | - |
| 1777685727 | 16.11° C | 70% | 1020.2 hPa | - | - | - | - |
| 1777685113 | 16.11° C | 69% | 1020.2 hPa | - | - | - | - |
| 1777684499 | 16.67° C | 66% | 1019.9 hPa | - | - | - | - |
| 1777683885 | 16.67° C | 62% | 1019.9 hPa | - | - | - | - |
| 1777683271 | 16.67° C | 59% | 1019.9 hPa | - | - | - | - |
| 1777682656 | 16.67° C | 60% | 1019.8 hPa | - | - | - | - |
| 1777682042 | 16.67° C | 58% | 1019.8 hPa | - | - | - | - |
| 1777681428 | 16.67° C | 60% | 1020 hPa | - | - | - | - |
| 1777680814 | 16.67° C | 55% | 1019.9 hPa | - | - | - | - |
| 1777680200 | 16.67° C | 54% | 1019.9 hPa | - | - | - | - |
| 1777679586 | 16.67° C | 54% | 1020.1 hPa | - | - | - | - |
| 1777678971 | 16.67° C | 54% | 1020.3 hPa | - | - | - | - |
| 1777677743 | 16.67° C | 52% | 1020.7 hPa | - | - | - | - |
* Rain since midnight (hover to see other rain measurements)
** Current wind speed in m/s (hover to see current wind gust speed)